Flag for Canada Weather past 2 weeks in St. Albert, Alberta, Canada

Now
59 °F

Overcast.


Feels Like: 57 °F
Forecast: 53 / 68 °F
Wind: 13 mph from Northwest

Location: Edmonton Municipal

Current Time: Jul 26, 2014 at 1:50:20 PM

Latest Report: Jul 26, 2014 at 1:00 PM


Visibility: 9 mi

Pressure: 30.11 "Hg

Humidity: 82%

Dew point: 54 °F

Location of St. AlbertLocation

Historic Weather in St. Albert — Graph

°F

St. Albert temperature yesterday

Maximum temperature yesterday: 59 °F (at 12:00 AM)
Minimum temperature yesterday: 54 °F (at 2:00 AM)
Average temperature yesterday: 57 °F

Past Weeks' High & Low Weather Summary

 TemperatureHumidityPressure
High84 °F (Jul 15, 3:00 PM)94% (Jul 25, 2:00 AM)30.27 "Hg (Jul 25, 2:00 AM)
Low50 °F (Jul 21, 5:00 AM)28% (Jul 24, 5:00 PM)29.48 "Hg (Jul 25, 7:54 AM)
Average66 °F63%29.89 "Hg
* Reported Jul 11 12:00 Noon — Jul 26 12:00 Noon, St. Albert, Weather by CustomWeather, © 2014

Note: Actual official high and low records may vary slightly from our data, if they occured in-between our weather recording intervals... More about our weather records

Advertising

St. Albert weather history for previous 24 hours

 ConditionsComfort  
Time TempWeatherWind HumidityBarometerVisibility
12:00 PM
Jul 26
57 °FLight rain. Overcast.9 mph88%30.10 "Hg7 mi
11:00 AM55 °FOvercast.10 mph94%30.09 "Hg8 mi
10:56 AM55 °FOvercast.12 mph94%30.06 "Hg7 mi
10:00 AM55 °FLow clouds.14 mph94%30.07 "Hg9 mi
9:49 AM55 °FOvercast.12 mph94%30.05 "Hg9 mi
9:00 AM55 °FLight rain. Overcast.13 mph94%30.06 "Hg9 mi
8:00 AM55 °FLight rain. Overcast.9 mph94%30.04 "Hg9 mi
7:00 AM55 °FOvercast.10 mph88%30.02 "Hg9 mi
6:04 AM55 °FOvercast.12 mph94%29.99 "Hg9 mi
6:00 AM55 °FLight rain. Overcast.10 mph94%30.01 "Hg9 mi
5:00 AM55 °FOvercast.14 mph94%29.99 "Hg9 mi
4:00 AM55 °FLight rain. Overcast.14 mph94%29.98 "Hg2 mi
3:00 AM55 °FLight rain. Overcast.12 mph94%29.97 "Hg3 mi
2:47 AM55 °FLight rain. Overcast.10 mph94%29.94 "Hg2 mi
2:03 AM55 °FLight rain. Overcast.12 mph94%29.94 "Hg9 mi
1:00 AM55 °FOvercast.12 mph88%29.95 "Hg9 mi
12:00 AM55 °FOvercast.10 mph88%29.94 "Hg9 mi
11:00 PM
Jul 25
55 °FOvercast.12 mph88%29.93 "Hg9 mi
10:00 PM55 °FMostly cloudy.13 mph94%29.90 "Hg9 mi
9:51 PM55 °FMostly cloudy.15 mph94%29.88 "Hg9 mi
9:04 PM55 °FLight rain. Overcast.18 mph94%29.86 "Hg9 mi
8:00 PM57 °FOvercast.16 mph88%29.85 "Hg9 mi
7:00 PM57 °FLow clouds.18 mph94%29.82 "Hg9 mi
6:00 PM57 °FMostly cloudy.21 mph94%29.80 "Hg9 mi
5:00 PM59 °FLow clouds.20 mph94%29.78 "Hg9 mi
4:00 PM57 °FRain. Low clouds.15 mph94%29.75 "Hg2 mi
3:00 PM57 °FRain. Low clouds.14 mph94%29.71 "Hg2 mi
2:00 PM57 °FRain. Partly sunny.24 mph94%29.67 "Hg2 mi
1:00 PM57 °FHeavy rain. Low clouds.9 mph94%29.64 "Hg1 mi
Weather by CustomWeather, © 2014

See weather overviewHow to use our weather pages